Date String (YYYY-MM-DD hh:mm:ss) UTC,Instrument flags,Ambient pressure (hPa),Sample flow (lpm),Bypass flow (lpm),Sample temperature (°C),Ambient temperature (°C),ASC tube jacket temperature (°C),LED temperature (°C),Box temperature (°C),Sample RH (%),Span deviation,Mass concentration (μg/m³),Mass concentration (μg/m³),Mass concentration (μg/m³)
DateTimeUTC,F1_M11,P_M11,Q1_M11,Q2_M11,T1_M11,T2_M11,T3_M11,T4_M11,T5_M11,U1_M11,ZSPAN_M11,X0_M11,X2_M11,X1_M11
2023-01-01 14:00:00,,0818.9,4.98,0.00,22.6,22.3,00.0,31.3,24.5,15.3,0003.0,0015.05,0005.91,0005.27
2023-01-01 14:01:00,,0818.8,5.03,0.00,22.6,22.0,00.0,31.3,24.5,15.4,0002.8,0014.38,0005.96,0005.29
2023-01-01 14:02:00,,0818.8,5.02,0.00,22.6,21.8,00.0,31.3,24.4,15.3,0002.5,0013.49,0006.02,0005.33
2023-01-01 14:03:00,,0818.8,4.96,0.00,22.6,21.6,00.0,31.3,24.4,15.4,0001.6,0014.30,0006.07,0005.37
2023-01-01 14:04:00,,0818.8,4.99,0.00,22.6,21.5,00.0,31.3,24.4,15.4,0001.1,0014.28,0006.16,0005.41
2023-01-01 14:05:00,,0818.8,5.03,0.00,22.6,21.4,00.0,31.3,24.3,15.4,0000.5,0013.91,0006.24,0005.47
2023-01-01 14:06:00,,0818.8,4.98,0.00,22.6,21.4,00.0,31.3,24.3,15.3,0000.2,0013.99,0006.32,0005.51
2023-01-01 14:07:00,,0818.9,5.02,0.00,22.6,21.4,00.0,31.3,24.3,15.3,-000.5,0013.84,0006.44,0005.55
2023-01-01 14:08:00,,0818.9,5.02,0.00,22.6,21.4,00.0,31.3,24.3,15.2,-000.6,0012.88,0006.48,0005.59
2023-01-01 14:09:00,,0818.9,4.99,0.00,22.6,21.4,00.0,31.3,24.3,15.2,-000.7,0012.75,0006.49,0005.61
2023-01-01 14:10:00,,0818.9,5.00,0.00,22.6,21.3,00.0,31.3,24.3,15.2,-001.2,0011.62,0006.46,0005.60
2023-01-01 14:11:00,,0818.8,4.97,0.00,22.5,21.3,00.0,31.3,24.3,15.2,-000.7,0011.57,0006.42,0005.56
2023-01-01 14:12:00,,0818.8,4.97,0.00,22.5,21.3,00.0,31.3,24.3,15.1,-000.7,0011.68,0006.36,0005.52
2023-01-01 14:13:00,,0818.8,5.06,0.00,22.5,21.2,00.0,31.3,24.3,15.1,-000.5,0011.76,0006.29,0005.47
2023-01-01 14:14:00,,0818.8,5.02,0.00,22.5,21.2,00.0,31.3,24.3,15.0,-000.4,0011.03,0006.24,0005.41
2023-01-01 14:15:00,,0818.7,4.97,0.00,22.5,21.2,00.0,31.3,24.3,14.9,-000.1,0010.67,0006.17,0005.37
2023-01-01 14:16:00,,0818.7,4.99,0.00,22.5,21.1,00.0,31.3,24.2,14.9,-000.4,0010.56,0006.12,0005.36
2023-01-01 14:17:00,,0818.8,4.98,0.00,22.5,21.1,00.0,31.3,24.2,14.9,-000.0,0010.41,0006.05,0005.34
2023-01-01 14:18:00,,0818.8,5.04,0.00,22.5,21.1,00.0,31.3,24.2,15.0,0000.5,0010.08,0005.93,0005.33
2023-01-01 14:19:00,,0818.9,4.99,0.00,22.4,21.1,00.0,31.3,24.2,15.0,-000.3,0010.00,0005.94,0005.38
2023-01-01 14:20:00,,0818.9,5.04,0.00,22.4,21.0,00.0,31.3,24.2,15.0,-000.4,0009.95,0005.98,0005.48
2023-01-01 14:21:00,,0818.9,5.06,0.00,22.4,21.0,00.0,31.3,24.2,15.1,-000.5,0009.96,0006.07,0005.60
2023-01-01 14:22:00,,0818.8,4.97,0.00,22.4,21.0,00.0,31.3,24.2,15.1,-000.6,0009.71,0006.18,0005.76
2023-01-01 14:23:00,,0818.8,4.99,0.00,22.4,20.9,00.0,31.3,24.2,15.2,-000.7,0009.53,0006.30,0005.92
2023-01-01 14:24:00,,0818.9,4.97,0.00,22.4,20.9,00.0,31.3,24.2,15.2,-000.8,0009.55,0006.51,0006.13
2023-01-01 14:25:00,,0818.8,4.98,0.00,22.4,20.9,00.0,31.3,24.2,15.3,-000.4,0009.74,0006.75,0006.42
2023-01-01 14:26:00,,0818.9,5.03,0.00,22.4,20.9,00.0,31.3,24.1,15.3,-000.3,0009.99,0007.06,0006.72
2023-01-01 14:27:00,,0818.9,5.03,0.00,22.3,20.9,00.0,31.2,24.1,15.3,0000.0,0010.20,0007.32,0006.99
2023-01-01 14:28:00,,0818.9,5.00,0.00,22.3,21.0,00.0,31.2,24.1,15.3,0000.1,0010.46,0007.58,0007.25
2023-01-01 14:29:00,,0818.9,4.97,0.00,22.3,21.0,00.0,31.2,24.1,15.3,0000.0,0010.94,0007.82,0007.49
2023-01-01 14:30:00,,0818.9,5.07,0.00,22.3,21.0,00.0,31.2,24.1,15.3,0000.3,0011.49,0007.98,0007.64
2023-01-01 14:31:00,,0818.9,4.97,0.00,22.3,21.0,00.0,31.2,24.1,15.3,-000.0,0011.66,0008.11,0007.76
2023-01-01 14:32:00,,0819.0,4.97,0.00,22.3,21.0,00.0,31.2,24.1,15.3,0000.1,0011.74,0008.23,0007.89
2023-01-01 14:33:00,,0818.9,5.06,0.00,22.3,21.0,00.0,31.2,24.1,15.2,0000.3,0012.24,0008.42,0008.04
2023-01-01 14:34:00,,0818.9,4.98,0.00,22.3,21.0,00.0,31.2,24.1,15.2,0000.1,0012.91,0008.65,0008.19
2023-01-01 14:35:00,,0818.8,4.98,0.00,22.3,21.0,00.0,31.2,24.1,15.3,0000.1,0013.72,0008.86,0008.34
2023-01-01 14:36:00,,0818.9,5.00,0.00,22.3,21.0,00.0,31.2,24.1,15.3,-000.0,0014.46,0008.98,0008.40
2023-01-01 14:37:00,,0818.9,5.01,0.00,22.3,20.9,00.0,31.2,24.1,15.3,-000.4,0014.70,0009.03,0008.39
2023-01-01 14:38:00,,0818.9,5.01,0.00,22.3,21.0,00.0,31.2,24.1,15.3,-000.5,0014.90,0009.07,0008.37
2023-01-01 14:39:00,,0818.8,5.01,0.00,22.3,20.9,00.0,31.2,24.1,15.4,-000.6,0015.48,0009.19,0008.36
2023-01-01 14:40:00,,0818.8,4.99,0.00,22.3,20.9,00.0,31.2,24.0,15.4,-000.6,0016.95,0009.43,0008.40
2023-01-01 14:41:00,,0818.8,5.06,0.00,22.3,21.0,00.0,31.1,24.1,15.4,-000.8,0017.42,0009.63,0008.46
2023-01-01 14:42:00,,0818.8,5.01,0.00,22.3,21.7,00.0,31.1,24.3,15.4,-000.7,0017.87,0009.73,0008.53
2023-01-01 14:43:00,,0818.8,4.97,0.00,22.5,22.6,00.0,31.1,24.5,15.3,-000.6,0018.01,0009.81,0008.57
2023-01-01 14:44:00,,0818.9,4.99,0.00,22.6,22.8,00.0,31.2,24.6,15.3,-001.0,0017.87,0009.81,0008.60
2023-01-01 14:45:00,,0818.8,4.97,0.00,22.6,22.5,00.0,31.2,24.6,15.2,-000.5,0017.34,0009.74,0008.59
2023-01-01 14:46:00,,0818.8,5.05,0.00,22.6,22.2,00.0,31.3,24.5,15.2,-000.4,0016.77,0009.65,0008.57
2023-01-01 14:47:00,,0818.8,5.01,0.00,22.6,21.9,00.0,31.3,24.5,15.2,-000.3,0016.04,0009.63,0008.62
2023-01-01 14:48:00,,0818.8,5.02,0.00,22.6,21.8,00.0,31.3,24.4,15.2,0000.3,0016.23,0009.65,0008.66
2023-01-01 14:49:00,,0818.8,4.99,0.00,22.6,21.6,00.0,31.3,24.4,15.2,0000.7,0016.32,0009.63,0008.71
2023-01-01 14:50:00,,0818.8,4.99,0.00,22.6,21.6,00.0,31.3,24.4,15.1,0000.4,0015.99,0009.54,0008.69
2023-01-01 14:51:00,,0818.7,5.00,0.00,22.6,21.5,00.0,31.3,24.4,15.0,0000.3,0014.43,0009.26,0008.61
2023-01-01 14:52:00,,0818.7,5.03,0.00,22.6,21.5,00.0,31.3,24.4,15.0,0000.4,0013.66,0009.11,0008.54
2023-01-01 14:53:00,,0818.8,5.03,0.00,22.6,21.4,00.0,31.3,24.4,15.0,0000.5,0013.06,0008.98,0008.46
2023-01-01 14:54:00,,0818.7,4.98,0.00,22.6,21.4,00.0,31.4,24.3,15.0,0000.5,0013.01,0008.94,0008.41
2023-01-01 14:55:00,,0818.8,4.98,0.00,22.6,21.4,00.0,31.4,24.3,15.0,0000.5,0013.10,0008.91,0008.34
2023-01-01 14:56:00,,0818.8,5.01,0.00,22.6,21.3,00.0,31.4,24.3,15.0,0000.6,0013.08,0008.85,0008.27
2023-01-01 14:57:00,,0818.7,5.02,0.00,22.6,21.3,00.0,31.4,24.3,15.0,0000.4,0013.20,0008.79,0008.20
2023-01-01 14:58:00,,0818.7,5.00,0.00,22.6,21.3,00.0,31.4,24.3,15.0,0000.3,0013.29,0008.68,0008.07
2023-01-01 14:59:00,,0818.7,4.99,0.00,22.6,21.3,00.0,31.4,24.3,15.0,0000.3,0013.12,0008.59,0007.97
